Terug naar catalogus

STARLINK-36937

ActiefCommunicatieSSO
NORAD 68113·PAYLOAD·🇺🇸 United States

Gelanceerd Mar 8, 2026 vanaf Vandenberg Space Force Base

Loading…

Volgende Passages (komende 24 uur)

TLE

VersSource: CelesTrak SupGP

Epoch: Sep 14, 2026, 21:11 UTC

1 68113C 26044N   26257.88312500 -.00000360  00000+0 -11166-4 0  2570
2 68113  97.2848 216.9184 0001837  85.9563  42.2230 15.33440453    11

Volg STARLINK-36937 in realtime met AllMySat

Download on the App Store